• Join FlightAware (Why Join?)
  • Login
  • US Flag GB Flag 
23:24 EDT


 

Airport Tracker/Info


-or-


 

Live Flight TrackerFlight Track Log ✈ SWA1182 ✈ 20-Apr-2013 ✈ KONT - KPHX

Flight Track Log - Related Links

Times and Time Zones

All times are in EDT time to prevent confusion due to time zone crossing. See the SWA1182 flight status page for this flight to view local times or setup timezone preferences in your user account.

Time Position Orientation Groundspeed Altitude Reporting Facility
EDT Latitude Longitude Course Direction KTS MPH feet Rate Location/Type
19:22 33.9667 -117.5833 151° Southeast 235 270 4,200  Level Southern California TRACON
19:23 33.8831 -117.4997 140° Southeast 265 305 8,500 3,000 Climbing Los Angeles Center
19:24 33.8128 -117.4414 145° Southeast 300 345 12,200 3,720 Climbing Los Angeles Center
19:25 33.7428 -117.3358 129° Southeast 365 420 16,300 3,660 Climbing Los Angeles Center
19:26 33.7000 -117.1175 90° East  Level FlightAware Approximate
19:26 33.7322 -117.2094 96° East 381 438 19,800  Level Los Angeles Center
19:27 33.7194 -117.0764 97° East 398 458 23,100 2,940 Climbing Los Angeles Center
19:28 33.7053 -116.9347 97° East 422 486 25,900 2,640 Climbing Los Angeles Center
19:29 33.6914 -116.7917 97° East 440 506 28,600 2,640 Climbing Los Angeles Center
19:30 33.6772 -116.6419 96° East 448 516 31,400 2,100 Climbing Los Angeles Center
19:31 33.6586 -116.4647 97° East 445 512 33,000 480 Climbing Los Angeles Center
19:33 33.6433 -116.3144 97° East 450 518 32,400 -720 Descending Los Angeles Center
19:34 33.6286 -116.1597 96° East 461 531 31,600 -720 Descending Los Angeles Center
19:35 33.6244 -116.0019 92° East 470 541 31,000 -300 Descending Los Angeles Center
19:36 33.6219 -115.8425 91° East 475 547 31,000  Level Los Angeles Center
19:37 33.6178 -115.6836 92° East 475 547 31,000  Level Los Angeles Center
19:38 33.6144 -115.5258 91° East 473 544 31,000  Level Los Angeles Center
19:39 33.6092 -115.3353 92° East 476 548 31,000  Level Los Angeles Center
19:40 33.6061 -115.1744 91° East 481 554 31,000  Level Los Angeles Center
19:41 33.6003 -115.0139 92° East 482 555 31,000  Level Los Angeles Center
19:42 33.5969 -114.8539 91° East 481 554 31,000  Level Los Angeles Center
19:43 33.5803 -114.6933 97° East 489 563 31,000  Level Los Angeles Center
19:43 33.5689 -114.6136 100° East 482 555 31,000 -120 Level Albuquerque Center
19:44 33.5381 -114.4558 103° East 487 560 30,900 -1,320 Descending Albuquerque Center
19:45 33.5072 -114.2992 103° East 484 557 28,400 -2,460 Descending Albuquerque Center
19:46 33.4775 -114.1472 103° East 474 545 25,900 -1,680 Descending Albuquerque Center
19:47 33.4478 -114.0022 104° East 456 525 25,000 -720 Descending Albuquerque Center
19:48 33.4242 -113.8561 101° East 449 517 24,500 -780 Descending Albuquerque Center
19:49 33.4042 -113.7089 99° East 447 514 23,500 -1,020 Descending Albuquerque Center
19:50 33.3847 -113.5639 99° East 443 510 22,500 -1,140 Descending Albuquerque Center
19:51 33.3611 -113.3931 99° East 435 501 21,300 -1,080 Descending Albuquerque Center
19:52 33.3411 -113.2508 100° East 434 499 20,300 -1,020 Descending Albuquerque Center
19:53 33.3225 -113.1125 99° East 426 490 19,300 -1,380 Descending Albuquerque Center
19:54 33.3022 -112.9756 100° East 420 483 17,600 -1,620 Descending Albuquerque Center
19:56 33.2839 -112.8472 100° East 403 464 16,000 -840 Descending Albuquerque Center
19:57 33.2814 -112.7308 91° East 362 417 15,900 -600 Descending Albuquerque Center
19:58 33.2850 -112.6208 88° East 338 389 14,800 -1,380 Descending Albuquerque Center
19:59 33.2886 -112.5003 88° East 333 383 13,100 -1,680 Descending Albuquerque Center
20:00 33.2911 -112.3947 88° East 321 369 11,400 -1,080 Descending Albuquerque Center
20:01 33.2964 -112.2928 86° East 311 358 10,900 -960 Descending Albuquerque Center
20:02 33.3036 -112.1961 85° East 297 342 9,500 -960 Descending Albuquerque Center
20:03 33.3103 -112.1014 85° East 288 331 9,000 -900 Descending Albuquerque Center
20:04 33.3306 -112.0200 73° East 259 298 7,700 -1,440 Descending Albuquerque Center
20:05 33.3475 -111.9386 76° East 253 291 6,100 -1,260 Descending Albuquerque Center
20:06 33.3703 -111.8722 68° East 198 228 5,200 -1,140 Descending Albuquerque Center
20:07 33.4175 -111.8661 North 173 199 3,800 -1,320 Descending Albuquerque Center
20:08 33.4289 -111.9111 287° West 142 163 2,500 -960 Descending Albuquerque Center
20:09 33.4289 -111.9564 270° West 137 158 1,900 -720 Descending Albuquerque Center
20:10 33.4281 -112.0044 269° West 137 158 1,100 -780 Descending Albuquerque Center